AAL1181 KDFW-KLAX

Flight info

Callsign AAL1181
Flight time N/A
Altitude 30000
Route KATZZ2 BRHMA CNX ONM SJN DRK J231 HIPPI GABBL HLYWD1
Aircraft B77W/H-SDE1E2E3FGHIJ2J3J4J5M1RWXY/LB1D1

Departure

Time 2026-05-03 21:53
Airport Dallas Fort Worth International Airport (KDFW)

Arrival

Time N/A
Airport Los Angeles International Airport (KLAX)
Time Latitude Longitude Altitude Speed Heading
2026-05-03 21:00 32.89769 -97.04571 603 ft 0 kts 91°
2026-05-03 21:44 32.89769 -97.04573 603 ft 2 kts 91°
2026-05-03 21:44 32.89770 -97.04603 603 ft 4 kts 91°
2026-05-03 21:44 32.89771 -97.04634 603 ft 3 kts 91°
2026-05-03 21:44 32.89770 -97.04657 603 ft 4 kts 49°
2026-05-03 21:45 32.89750 -97.04666 603 ft 3 kts
2026-05-03 21:45 32.89723 -97.04666 603 ft 4 kts
2026-05-03 21:45 32.89716 -97.04667 603 ft 0 kts
2026-05-03 21:47 32.89722 -97.04668 603 ft 4 kts 352°
2026-05-03 21:48 32.89762 -97.04718 601 ft 11 kts 281°
2026-05-03 21:48 32.89759 -97.04814 603 ft 12 kts 268°
2026-05-03 21:48 32.89778 -97.04882 619 ft 7 kts 333°
2026-05-03 21:48 32.89862 -97.04888 620 ft 22 kts
2026-05-03 21:49 32.90017 -97.04886 618 ft 21 kts
2026-05-03 21:49 32.90164 -97.04885 614 ft 21 kts
2026-05-03 21:49 32.90312 -97.04884 612 ft 21 kts
2026-05-03 21:49 32.90459 -97.04884 612 ft 21 kts
2026-05-03 21:50 32.90606 -97.04883 615 ft 21 kts
2026-05-03 21:50 32.90753 -97.04882 620 ft 21 kts
2026-05-03 21:50 32.90900 -97.04882 618 ft 21 kts
2026-05-03 21:50 32.91047 -97.04881 622 ft 21 kts
2026-05-03 21:51 32.91194 -97.04880 623 ft 21 kts
2026-05-03 21:51 32.91341 -97.04878 623 ft 21 kts
2026-05-03 21:51 32.91434 -97.04954 628 ft 17 kts 286°
2026-05-03 21:51 32.91412 -97.05069 630 ft 14 kts 212°
2026-05-03 21:52 32.91293 -97.05075 624 ft 27 kts 180°
2026-05-03 21:52 32.90931 -97.05076 621 ft 87 kts 180°
2026-05-03 21:52 32.90079 -97.05081 613 ft 154 kts 180°
2026-05-03 21:52 32.88896 -97.05091 945 ft 177 kts 179°
2026-05-03 21:53 32.87650 -97.05088 1445 ft 193 kts 182°
2026-05-03 21:53 32.86364 -97.05068 2335 ft 185 kts 182°
2026-05-03 21:53 32.85046 -97.05072 2945 ft 198 kts 183°
2026-05-03 21:53 32.83553 -97.05107 3173 ft 232 kts 182°
2026-05-03 21:54 32.81916 -97.05145 3895 ft 240 kts 183°
2026-05-03 21:54 32.80240 -97.05185 4826 ft 240 kts 182°
2026-05-03 21:54 32.78566 -97.05222 5734 ft 244 kts 183°
2026-05-03 21:54 32.76850 -97.05269 6556 ft 249 kts 183°
2026-05-03 21:55 32.75104 -97.05317 7384 ft 252 kts 184°
2026-05-03 21:55 32.74482 -97.05332 7684 ft 254 kts 182°
2026-05-03 21:55 32.73284 -97.05382 8121 ft 258 kts 187°
2026-05-03 21:56 32.71606 -97.06097 8788 ft 260 kts 218°
2026-05-03 21:56 32.70429 -97.07710 9555 ft 266 kts 241°
2026-05-03 21:56 32.69835 -97.09871 9923 ft 296 kts 256°
2026-05-03 21:56 32.69713 -97.10485 9982 ft 301 kts 256°
2026-05-03 21:57 32.69496 -97.11583 10412 ft 298 kts 256°
2026-05-03 21:57 32.69071 -97.14115 10550 ft 325 kts 264°
2026-05-03 21:58 32.69169 -97.16901 10799 ft 351 kts 275°
2026-05-03 21:58 32.69439 -97.19845 11373 ft 366 kts 274°
2026-05-03 21:58 32.69649 -97.22886 12140 ft 373 kts 273°
2026-05-03 21:58 32.69844 -97.25968 13103 ft 376 kts 274°
2026-05-03 21:59 32.70136 -97.28442 14008 ft 377 kts 279°
2026-05-03 21:59 32.70479 -97.30556 14601 ft 381 kts 281°
2026-05-03 21:59 32.71041 -97.33633 15605 ft 380 kts 282°
2026-05-03 22:00 32.71146 -97.34197 15782 ft 381 kts 282°
2026-05-03 22:00 32.71380 -97.35460 16126 ft 383 kts 282°
2026-05-03 22:01 32.71952 -97.38567 16981 ft 389 kts 282°
2026-05-03 22:01 32.72518 -97.41738 17730 ft 396 kts 282°
2026-05-03 22:01 32.73077 -97.44965 18505 ft 402 kts 282°
2026-05-03 22:01 32.73633 -97.48235 19268 ft 405 kts 282°
2026-05-03 22:02 32.74176 -97.51465 20139 ft 405 kts 282°
2026-05-03 22:02 32.74725 -97.54749 21005 ft 406 kts 282°
2026-05-03 22:02 32.75282 -97.58090 21809 ft 408 kts 282°
2026-05-03 22:02 32.75827 -97.61365 22539 ft 411 kts 282°
2026-05-03 22:03 32.76383 -97.64704 23302 ft 413 kts 282°
2026-05-03 22:03 32.76948 -97.68107 24008 ft 415 kts 282°
2026-05-03 22:03 32.77508 -97.71481 24652 ft 416 kts 282°
2026-05-03 22:03 32.78091 -97.74806 25296 ft 417 kts 284°
2026-05-03 22:04 32.78821 -97.78139 25944 ft 417 kts 287°
2026-05-03 22:04 32.79620 -97.81456 26565 ft 418 kts 287°
2026-05-03 22:04 32.80448 -97.84827 27153 ft 420 kts 287°
2026-05-03 22:04 32.81155 -97.87731 27569 ft 421 kts 287°
2026-05-03 22:05 32.81396 -97.88730 27728 ft 422 kts 287°
2026-05-03 22:05 32.82199 -97.92096 28284 ft 424 kts 287°
2026-05-03 22:05 32.82994 -97.95469 28811 ft 425 kts 287°
2026-05-03 22:06 32.83786 -97.98860 29315 ft 426 kts 286°
2026-05-03 22:06 32.84576 -98.02254 29832 ft 426 kts 286°
2026-05-03 22:06 32.85366 -98.05662 30102 ft 430 kts 286°
2026-05-03 22:06 32.86166 -98.09111 30081 ft 434 kts 286°
2026-05-03 22:07 32.87766 -98.16022 30071 ft 432 kts 286°
2026-05-03 22:07 32.89357 -98.22908 30085 ft 432 kts 286°
2026-05-03 22:08 32.90949 -98.29813 30073 ft 433 kts 286°
2026-05-03 22:08 32.92544 -98.36732 30054 ft 433 kts 286°
2026-05-03 22:09 32.94133 -98.43650 30067 ft 434 kts 285°
2026-05-03 22:10 32.96512 -98.54045 30062 ft 434 kts 285°
2026-05-03 22:10 32.98094 -98.60980 30063 ft 434 kts 285°
2026-05-03 22:11 32.99671 -98.67914 30060 ft 434 kts 285°
2026-05-03 22:11 33.01245 -98.74850 30058 ft 433 kts 285°
2026-05-03 22:12 33.02809 -98.81765 30057 ft 432 kts 285°
2026-05-03 22:12 33.04368 -98.88678 30057 ft 432 kts 285°
2026-05-03 22:13 33.05922 -98.95588 30050 ft 431 kts 285°
2026-05-03 22:13 33.07210 -99.01330 30049 ft 431 kts 285°
2026-05-03 22:14 33.08757 -99.08243 30046 ft 432 kts 285°
2026-05-03 22:14 33.10301 -99.15158 30044 ft 431 kts 285°
2026-05-03 22:15 33.11837 -99.22062 30056 ft 431 kts 285°
2026-05-03 22:15 33.13369 -99.28970 30037 ft 431 kts 285°
2026-05-03 22:16 33.14897 -99.35873 30033 ft 430 kts 285°
2026-05-03 22:16 33.16421 -99.42781 30033 ft 431 kts 285°
2026-05-03 22:17 33.17942 -99.49696 30021 ft 430 kts 285°
2026-05-03 22:17 33.19457 -99.56600 30036 ft 430 kts 285°
2026-05-03 22:18 33.20984 -99.63498 30031 ft 429 kts 285°
2026-05-03 22:18 33.22550 -99.70378 30031 ft 429 kts 285°
2026-05-03 22:19 33.23283 -99.73592 30022 ft 429 kts 285°
2026-05-03 22:20 33.24383 -99.78434 30021 ft 429 kts 285°
2026-05-03 22:20 33.25949 -99.85364 30525 ft 431 kts 285°
2026-05-03 22:20 33.26721 -99.88793 31130 ft 424 kts 285°
2026-05-03 22:21 33.27481 -99.92175 31720 ft 419 kts 285°
2026-05-03 22:21 33.28232 -99.95520 32247 ft 415 kts 285°
2026-05-03 22:21 33.28978 -99.98845 32626 ft 415 kts 285°
2026-05-03 22:21 33.29724 -100.02176 32968 ft 414 kts 285°
2026-05-03 22:22 33.30466 -100.05496 33374 ft 412 kts 285°
2026-05-03 22:22 33.31202 -100.08791 33877 ft 408 kts 285°
2026-05-03 22:22 33.31929 -100.12052 34313 ft 405 kts 285°
2026-05-03 22:22 33.32653 -100.15301 34632 ft 403 kts 285°
2026-05-03 22:23 33.33373 -100.18541 34906 ft 403 kts 285°
2026-05-03 22:23 33.34092 -100.21775 35214 ft 401 kts 285°
2026-05-03 22:23 33.34804 -100.24987 35565 ft 399 kts 285°
2026-05-03 22:23 33.35512 -100.28183 35880 ft 397 kts 285°
2026-05-03 22:24 33.36212 -100.31343 35922 ft 399 kts 285°
2026-05-03 22:24 33.37639 -100.37809 35991 ft 398 kts 285°
2026-05-03 22:25 33.39045 -100.44193 36000 ft 395 kts 285°
2026-05-03 22:25 33.40440 -100.50540 36000 ft 394 kts 285°
2026-05-03 22:26 33.41818 -100.56833 36004 ft 393 kts 285°
2026-05-03 22:26 33.43202 -100.63167 35992 ft 393 kts 285°
2026-05-03 22:27 33.44586 -100.69513 35999 ft 394 kts 285°
2026-05-03 22:27 33.45968 -100.75877 35995 ft 396 kts 285°
2026-05-03 22:28 33.47353 -100.82267 35996 ft 397 kts 285°